EHI
11 33 58 71 75 73 71 70 66 58 47 33 20 15 16 14 9 6 4 1 0 0 0 0 0 0 0 0 0 0 0 0 0 0 0 0 0 0 0 0 0 0 0
11 33 60 74 78 76 73 73 71 63 51 38 26 22 22 18 11 5 3 2 1 1 0 0 0 0 0 0 0 0 0 0 0 0 0 0 0 0 0 0 0 0 0
11 31 59 77 81 78 76 76 75 68 57 45 34 31 28 21 13 7 4 3 3 3 1 0 0 0 0 0 0 0 0 0 0 0 0 0 0 0 0 0 0 0 0
11 30 58 78 83 80 77 76 74 68 59 49 40 35 30 23 15 9 6 5 6 6 4 1 1 0 0 0 0 0 0 0 0 0 0 0 0 0 0 0 0 0 0
11 30 59 79 84 81 78 75 71 65 57 49 41 35 29 24 18 12 8 7 8 8 5 1 0 0 0 0 0 0 0 0 0 0 0 0 0 0 0 0 0 0 0
12 29 58 78 84 82 78 73 69 63 54 46 38 31 26 22 18 14 11 9 9 8 4 1 0 0 0 0 0 0 0 0 0 0 0 0 0 0 0 0 0 0 0
11 26 52 74 83 82 77 71 65 58 51 43 34 26 22 19 16 13 11 10 9 6 2 0 0 0 0 0 0 0 0 0 0 0 0 0 0 0 0 0 0 0 0
11 22 44 64 76 79 75 68 60 52 46 41 32 23 19 17 14 11 10 10 8 4 1 0 0 0 0 0 0 0 0 0 0 0 0 0 0 0 0 0 0 0 0
10 19 36 50 59 64 64 59 51 45 40 36 28 20 16 14 11 10 9 9 7 3 0 0 0 0 0 0 0 0 0 0 0 0 0 0 0 0 0 0 0 0 0
9 14 26 36 41 45 46 45 41 35 30 25 19 14 11 10 9 8 7 6 4 1 0 0 0 0 0 0 0 0 0 0 0 0 0 0 0 0 0 0 0 0 0
7 9 17 26 32 34 34 33 32 27 19 13 10 7 6 6 6 5 3 2 1 0 0 0 0 0 0 0 0 0 0 0 0 0 0 0 0 0 0 0 0 0 0
5 7 12 20 29 35 35 33 31 24 14 7 5 3 3 4 3 2 0 0 0 0 0 0 0 0 0 0 0 0 0 0 0 0 0 0 0 0 0 0 0 0 0
5 7 10 17 28 38 40 38 36 28 17 9 4 3 3 4 3 1 0 0 0 0 0 0 0 0 0 0 0 0 0 0 0 0 0 0 0 0 0 0 0 0 0
5 6 8 15 27 36 39 38 38 32 21 11 6 4 5 5 3 1 0 0 0 0 0 0 0 0 0 0 0 0 0 0 0 0 0 0 0 0 0 0 0 0 0
4 4 6 13 24 31 34 33 34 30 21 12 8 6 5 4 3 2 0 0 0 0 0 0 0 0 0 0 0 0 0 0 0 0 0 0 0 0 0 0 0 0 0
3 3 3 9 18 24 27 28 28 25 19 12 8 6 4 3 2 1 0 0 0 0 0 0 0 0 0 0 0 0 0 0 0 0 0 0 0 0 0 0 0 0 0
2 2 1 4 10 15 19 23 24 21 16 11 8 6 4 2 1 0 0 0 0 0 0 0 0 0 0 0 0 0 0 0 0 0 0 0 0 0 0 0 0 0 0
2 2 1 2 5 8 13 19 19 16 11 8 6 6 4 2 0 0 0 0 0 0 0 0 0 0 0 0 0 0 0 0 0 0 0 0 0 0 0 0 0 0 0
2 1 0 1 3 5 10 14 14 10 7 6 5 4 3 1 0 0 0 0 0 0 0 0 0 0 0 0 0 0 0 0 0 0 0 0 0 0 0 0 0 0 0
1 0 0 1 2 4 6 8 8 6 4 3 3 2 1 0 0 0 0 0 0 0 0 0 0 0 0 0 0 0 0 0 0 0 0 0 0 0 0 0 0 0 0
0 0 0 1 2 2 3 4 5 3 1 1 1 1 0 0 0 0 0 0 0 0 0 0 0 0 0 0 0 0 0 0 0 0 0 0 0 0 0 0 0 0 0
0 0 0 0 1 1 1 2 3 1 0 0 0 0 0 0 0 0 0 0 0 0 0 0 0 0 0 0 0 0 0 0 0 0 0 0 0 0 0 0 0 0 0
0 0 0 0 0 0 0 1 1 1 0 0 0 0 0 0 0 0 0 0 0 0 0 0 0 0 0 0 0 0 0 0 0 0 0 0 0 0 0 0 0 0 0
0 0 0 0 0 0 0 0 0 0 0 0 0 0 0 0 0 0 0 0 0 0 0 0 0 0 0 0 0 0 0 0 0 0 0 0 0 0 0 0 0 0 0
0 0 1 1 1 0 0 0 0 0 0 0 0 0 0 0 0 0 0 0 0 0 0 0 0 0 0 0 0 0 0 0 0 0 0 0 0 0 0 0 0 0 0
0 1 2 2 1 0 0 0 0 0 0 0 0 0 0 0 0 0 0 0 0 0 0 0 0 0 0 0 0 0 0 0 0 0 0 0 0 0 0 0 0 0 0
Wind_Speed
11 17 21 21 22 21 20 20 20 20 19 19 19 19 19 18 18 18 17 17 16 16 16 16 16 16 16 16 16 15 15 15 15 14 14 13 13 13 13 11 10 11 14
13 19 22 21 22 21 21 20 20 19 19 19 19 19 19 18 18 18 17 17 16 16 16 16 16 16 16 16 16 15 15 15 14 13 12 12 12 12 13 13 13 11 14
14 19 22 20 21 21 21 20 19 19 19 19 19 19 19 19 18 18 17 17 16 16 16 16 17 16 16 16 15 15 14 14 13 11 8 9 10 12 13 13 13 14 14
14 18 21 21 21 21 21 20 20 20 20 20 19 19 19 19 18 18 18 17 16 16 17 17 17 16 15 15 15 14 14 13 11 6 6 8 9 12 13 13 13 14 14
14 17 19 20 21 21 21 21 21 20 20 20 20 19 19 19 18 18 18 17 17 17 17 17 16 16 15 15 15 14 14 12 9 6 8 8 9 11 12 13 13 13 13
14 17 19 21 21 21 21 21 21 21 20 20 20 20 19 19 18 18 17 17 17 17 17 17 16 16 15 15 14 14 12 10 7 8 8 8 8 11 12 12 12 12 13
14 15 19 21 22 22 21 21 21 21 20 20 20 19 19 19 18 18 17 17 17 17 17 16 16 15 15 14 14 13 11 6 6 7 7 7 9 11 12 12 12 12 12
13 15 17 20 21 21 21 21 21 21 21 20 20 19 19 19 19 18 18 17 17 17 17 16 15 15 14 14 13 12 9 4 7 7 7 8 9 10 11 11 11 12 12
12 14 16 20 20 20 20 20 20 20 20 20 19 19 18 18 18 18 18 17 17 16 16 16 15 15 14 13 13 11 9 2 5 5 6 6 8 10 10 11 11 11 12
11 14 15 18 20 20 19 19 19 19 19 19 18 17 16 17 17 17 17 16 16 16 15 15 14 14 13 13 12 11 7 3 6 6 4 6 8 9 10 10 10 10 11
12 13 15 17 18 18 19 19 19 18 18 17 16 16 16 14 15 14 14 15 16 16 15 15 14 14 13 12 11 9 5 4 6 4 4 6 7 8 9 9 9 9 9
15 16 15 16 17 17 15 16 15 14 15 15 15 17 13 12 11 11 14 13 14 14 14 14 14 13 9 8 9 7 4 5 5 4 5 5 6 7 8 8 8 7 8
16 16 16 16 16 16 12 12 10 9 11 14 16 16 12 10 9 9 9 10 11 12 10 11 11 7 6 6 6 5 5 4 3 3 4 5 4 5 6 7 7 6 6
15 17 17 17 15 15 13 12 11 10 9 10 13 15 11 8 9 9 7 8 8 7 8 8 5 7 7 7 7 6 6 4 3 3 4 4 3 4 6 6 5 5 5
16 17 17 16 16 14 13 11 11 12 11 12 11 13 13 10 10 10 8 7 8 7 8 7 7 8 7 7 6 6 6 5 4 4 4 5 3 3 4 5 4 4 4
17 17 16 17 17 15 13 12 12 12 12 12 11 13 14 11 10 10 9 8 8 8 7 7 8 7 6 5 6 6 6 5 4 4 3 4 3 2 2 2 2 2 2
17 17 17 17 17 16 15 14 11 11 12 11 11 14 14 13 12 11 9 9 8 8 9 7 8 6 5 5 6 6 5 5 4 5 4 2 3 2 1 0 1 2 2
17 18 18 15 17 17 14 14 11 12 12 11 11 12 15 14 14 11 9 9 9 8 8 7 7 7 6 6 6 5 4 4 5 4 4 3 2 2 2 1 1 2 2
17 18 18 18 18 17 15 12 11 12 12 11 11 11 13 15 15 12 9 9 11 9 8 8 7 7 7 6 5 4 4 4 4 5 5 4 3 3 2 2 1 2 3
16 17 18 18 18 16 12 10 9 11 11 11 11 12 15 13 15 12 10 11 11 9 8 9 9 7 6 6 5 4 4 4 4 5 5 5 4 5 4 4 4 3 3
15 16 17 17 17 14 11 11 11 11 11 11 11 14 16 15 15 13 10 12 11 10 10 11 9 9 7 6 5 4 4 5 6 5 5 5 5 5 5 5 5 4 4
14 15 17 17 17 17 13 12 11 11 9 11 10 13 16 16 16 13 13 12 12 10 12 12 10 8 7 7 6 4 4 5 5 5 5 5 6 5 6 6 6 6 5
12 13 13 16 17 17 16 11 10 9 8 9 12 12 15 16 16 15 15 13 13 11 11 12 12 11 8 8 7 5 3 3 3 5 6 5 6 5 6 6 7 7 7
11 10 13 15 16 17 16 14 16 13 12 11 12 11 14 16 16 16 16 15 14 12 12 12 12 10 10 8 7 5 4 1 2 3 4 5 6 6 6 5 6 7 7
8 9 11 13 15 17 17 17 17 15 12 10 12 15 15 15 16 16 16 14 14 12 13 13 13 12 10 9 7 6 6 4 5 3 3 4 4 5 5 6 5 6 6
6 7 9 12 14 15 17 18 19 18 16 15 15 15 13 12 13 17 16 15 14 12 13 13 13 14 11 11 9 7 6 5 5 5 5 4 4 3 4 5 5 5 5
Wind_Direction
173 169 170 170 166 164 161 160 158 155 154 152 150 147 144 140 136 133 131 129 128 125 123 121 117 114 110 107 104 100 97 93 89 87 86 85 85 84 80 77 80 78 73
166 168 168 169 167 165 163 161 157 155 153 152 150 148 144 140 137 135 132 130 128 126 125 121 118 115 111 108 104 101 98 94 90 89 91 91 85 84 81 74 69 76 74
166 168 168 170 168 166 164 160 157 155 153 152 150 148 145 142 139 137 135 132 129 128 125 122 118 115 112 110 107 104 100 97 94 95 102 94 89 85 83 80 78 77 76
170 170 172 169 169 167 163 161 158 155 153 152 150 148 146 144 141 139 136 134 131 128 125 122 118 116 115 113 109 106 103 100 97 106 95 90 91 89 86 82 80 79 77
174 174 170 169 169 167 164 161 159 156 154 153 150 149 147 145 143 140 137 134 130 128 126 123 121 120 118 116 112 108 104 101 103 101 92 90 91 90 87 82 82 82 79
177 177 170 170 170 168 164 161 158 157 156 154 152 150 148 145 143 141 137 134 131 130 128 126 124 122 120 118 115 112 109 111 126 98 93 90 92 92 90 87 85 83 80
180 179 173 172 171 168 164 162 160 158 157 155 153 150 148 145 142 139 136 135 134 134 132 129 127 126 123 120 118 116 112 113 107 101 93 89 87 92 94 88 83 82 80
184 181 175 173 171 169 165 163 161 159 157 156 154 151 149 145 141 139 138 138 138 137 134 132 131 127 125 124 121 118 115 125 113 104 96 90 89 94 92 87 84 81 82
189 183 178 177 173 169 166 163 161 159 157 156 154 152 149 146 145 144 142 140 140 139 137 135 133 130 128 126 123 119 112 89 117 103 98 92 91 94 93 90 86 86 83
194 190 183 181 178 174 170 164 161 159 158 156 153 149 145 145 146 144 145 143 142 141 139 138 136 133 128 126 125 121 124 164 114 111 103 94 96 99 98 94 89 87 85
198 196 189 184 181 177 174 167 164 160 156 154 151 145 148 155 151 151 144 144 145 143 142 140 137 131 128 125 125 130 160 139 121 110 100 92 104 105 104 99 93 91 88
202 198 193 189 183 178 174 170 171 167 163 166 163 160 162 158 153 149 137 144 144 142 141 139 134 135 143 137 134 164 154 138 129 118 98 92 107 109 110 104 101 99 94
207 201 196 194 186 180 174 171 171 168 169 170 166 165 161 154 148 150 150 146 147 149 146 139 147 155 151 138 152 158 145 140 130 116 105 94 103 115 116 113 109 106 100
214 207 201 195 189 183 177 173 170 169 169 167 167 166 161 156 158 156 157 157 157 157 152 157 156 152 148 150 155 152 153 151 137 122 106 92 93 115 120 120 117 114 107
221 211 205 196 192 185 177 175 173 171 169 167 167 168 164 160 162 160 159 160 161 157 161 159 159 155 156 155 157 160 161 157 149 140 120 88 70 95 121 130 127 120 112
222 216 208 200 193 187 181 177 175 171 167 167 169 170 168 164 164 163 161 163 162 164 165 166 163 160 160 163 164 167 166 165 164 158 145 128 90 66 113 137 145 140 128
225 218 210 203 195 190 184 179 176 171 167 167 169 172 172 168 167 166 165 166 166 166 166 166 160 163 162 166 172 174 174 180 182 178 174 175 155 112 86 176 193 190 190
229 218 212 204 197 192 187 181 176 172 167 167 169 172 174 172 170 168 168 169 167 166 169 168 168 170 171 179 177 176 181 183 201 198 196 198 202 196 158 110 274 249 239
231 220 213 205 199 193 188 183 177 173 169 167 168 172 175 174 173 171 171 168 168 170 174 172 176 178 177 180 180 182 191 197 203 210 214 209 212 221 222 155 199 270 268
231 222 213 206 201 192 186 181 173 174 170 168 171 174 174 175 176 175 172 172 171 173 176 178 177 179 180 177 176 190 204 210 216 220 222 218 217 221 230 231 227 211 235
228 220 213 205 199 191 185 181 175 178 173 172 174 176 177 176 178 177 174 174 176 180 181 181 176 176 179 177 181 193 206 216 224 220 224 226 220 221 229 234 241 244 225
227 219 214 205 199 193 189 184 179 173 175 174 173 178 181 180 180 179 180 177 180 181 183 183 180 180 177 186 194 192 201 197 206 216 218 224 229 221 228 233 238 241 249
228 220 215 207 198 194 190 184 174 165 167 177 179 180 185 184 183 182 184 182 183 184 185 186 186 187 183 189 204 206 209 206 175 187 208 218 223 226 230 230 236 239 242
230 225 221 210 200 194 189 188 181 180 181 185 182 181 184 187 186 185 186 187 185 188 188 189 192 193 191 188 196 222 242 254 221 185 187 209 222 232 235 232 236 236 236
234 226 224 211 203 195 191 192 189 190 188 180 183 183 185 187 189 188 188 188 189 191 191 190 192 196 198 198 194 193 207 220 241 244 224 207 215 223 232 239 239 239 235
237 232 227 209 205 198 195 195 196 193 188 183 186 183 185 186 188 191 190 190 192 193 194 193 194 199 201 204 202 200 201 202 210 221 237 240 244 231 231 237 238 236 234